Marion, OH

5:24 PM EDT on April 23, 2018 (GMT -0400)
Marion Municipal

Weather History for KMNN - December, 2013

Change the Weather History Date:

Monday, December 2, 2013

  Actual Average (KDLZ) Record (KDLZ)
Temperature  
Mean Temperature 32 °F -  
Max Temperature 39 °F 43 °F 67 °F (1970)
Min Temperature 24 °F 26 °F 4 °F (1966)
Degree Days  
Heating Degree Days 34    
Moisture  
Dew Point 29 °F    
Average Humidity 92    
Maximum Humidity 100    
Minimum Humidity 73    
Precipitation  
Precipitation 0.00 in - - ()
Sea Level Pressure  
Sea Level Pressure 29.92 in    
Wind  
Wind Speed 4 mph (NNE)    
Max Wind Speed 9 mph    
Max Gust Speed -    
Visibility 2 miles    
Events Fog , Rain    
Averages and records for this station are not official NWS values.
T = Trace of Precipitation, MM = Missing Value Source: NWS Daily Summary

Daily Weather History Graph

Daily Weather History Graph

Search for Another Location

Airport or City:

Astronomy

Dec. 02, 2013 Rise Set
Actual Time 7:37 AM EST 5:05 PM EST
Civil Twilight 7:07 AM EST 5:35 PM EST
Nautical Twilight 6:33 AM EST 6:09 PM EST
Astronomical Twilight 6:00 AM EST 6:42 PM EST
Moon 7:01 AM EST (12/2) 5:07 PM EST (12/2)
Length of Visible Light 10h 28m
Length of Day
9h 27m
Waning Crescent, 0% of the Moon is Illuminated
Dec 2
Waning Crescent
Dec 2
New
Dec 9
First Quarter
Dec 17
Full
Dec 25
Last Quarter

Hourly Weather History & Observations

Time (EST) Temp. Windchill Dew Point Humidity Pressure Visibility Wind Dir Wind Speed Gust Speed Precip Events Conditions
12:53 AM 26.1 °F 20.5 °F 24.1 °F 92% 29.98 in 3.0 mi NNW 4.6 mph - N/A   Clear
1:05 AM 26.6 °F 21.2 °F 24.8 °F 93% 29.94 in 2.0 mi NNW 4.6 mph - N/A   Clear
1:20 AM 24.8 °F 19.1 °F 23.0 °F 93% 29.94 in 3.0 mi NNW 4.6 mph - N/A   Clear
1:53 AM 25.0 °F 19.3 °F 21.9 °F 88% 29.97 in 4.0 mi North 4.6 mph - N/A   Clear
2:06 AM 26.6 °F 20.0 °F 24.8 °F 93% 29.93 in 2.5 mi North 5.8 mph - N/A   Clear
2:53 AM 27.0 °F - 24.1 °F 89% 29.96 in 2.5 mi Calm Calm - N/A   Partly Cloudy
3:43 AM 26.6 °F - 26.6 °F 100% 29.92 in 1.8 mi Calm Calm - N/A   Partly Cloudy
3:51 AM 26.6 °F - 26.6 °F 100% 29.92 in 2.5 mi Calm Calm - N/A   Partly Cloudy
3:53 AM 27.0 °F - 26.1 °F 96% 29.95 in 2.5 mi Calm Calm - N/A   Partly Cloudy
4:12 AM 26.6 °F 21.2 °F 24.8 °F 93% 29.92 in 1.5 mi NNW 4.6 mph - N/A   Mostly Cloudy
4:35 AM 26.6 °F 20.0 °F 24.8 °F 93% 29.92 in 2.5 mi North 5.8 mph - N/A   Mostly Cloudy
4:53 AM 27.0 °F - 26.1 °F 96% 29.94 in 2.0 mi Calm Calm - N/A   Partly Cloudy
5:09 AM 28.4 °F - 26.6 °F 93% 29.91 in 1.8 mi Calm Calm - N/A   Partly Cloudy
5:17 AM 28.4 °F 23.3 °F 26.6 °F 93% 29.91 in 2.0 mi North 4.6 mph - N/A   Clear
5:32 AM 28.4 °F 21.2 °F 26.6 °F 93% 29.91 in 1.8 mi North 6.9 mph - N/A   Clear
5:51 AM 28.4 °F 20.4 °F 28.4 °F 100% 29.91 in 1.5 mi North 8.1 mph - N/A   Scattered Clouds
5:53 AM 28.9 °F 21.9 °F 28.0 °F 96% 29.94 in 1.2 mi North 6.9 mph - N/A   Scattered Clouds
5:59 AM 28.4 °F 21.2 °F 28.4 °F 100% 29.91 in 1.0 mi North 6.9 mph - N/A   Mostly Cloudy
6:08 AM 28.4 °F 21.2 °F 28.4 °F 100% 29.91 in 0.2 mi North 6.9 mph - N/A Fog Light Freezing Fog
6:53 AM 28.9 °F 21.9 °F 28.9 °F 100% 29.96 in 0.2 mi North 6.9 mph - N/A Fog Light Freezing Fog
7:53 AM 30.9 °F 26.2 °F 30.0 °F 96% 29.95 in 0.2 mi NE 4.6 mph - N/A Fog Light Freezing Fog
8:53 AM 30.9 °F 27.5 °F 30.9 °F 100% 29.96 in 0.2 mi ENE 3.5 mph - N/A Fog Light Freezing Fog
9:53 AM 32.0 °F 25.6 °F 32.0 °F 100% 29.95 in 0.5 mi ENE 6.9 mph - N/A Fog Fog
10:40 AM 33.8 °F 26.4 °F 33.8 °F 100% 29.90 in 1.0 mi ENE 9.2 mph - N/A   Overcast
10:53 AM 33.1 °F 28.7 °F 33.1 °F 100% 29.94 in 1.2 mi ENE 4.6 mph - N/A   Overcast
11:30 AM 33.8 °F 29.6 °F 33.8 °F 100% 29.89 in 2.0 mi ENE 4.6 mph - N/A   Overcast
11:53 AM 35.1 °F 32.2 °F 33.1 °F 92% 29.93 in 2.5 mi NE 3.5 mph - N/A   Overcast
12:02 PM 35.6 °F 32.8 °F 33.8 °F 93% 29.89 in 2.5 mi NE 3.5 mph - N/A   Overcast
12:50 PM 35.6 °F 30.7 °F 32.0 °F 87% 29.88 in 3.0 mi NNE 5.8 mph - N/A   Overcast
12:53 PM 36.0 °F 32.1 °F 32.0 °F 86% 29.92 in 3.0 mi NNE 4.6 mph - N/A   Overcast
1:11 PM 37.4 °F 32.1 °F 32.0 °F 81% 29.88 in 3.0 mi NNE 6.9 mph - N/A   Haze
1:53 PM 37.9 °F 34.4 °F 32.0 °F 79% 29.90 in 3.0 mi NE 4.6 mph - N/A   Haze
2:53 PM 39.0 °F 33.4 °F 30.9 °F 73% 29.87 in 4.0 mi NE 8.1 mph - N/A   Haze
3:53 PM 37.9 °F 32.7 °F 30.9 °F 76% 29.88 in 4.0 mi ENE 6.9 mph - N/A   Haze
4:53 PM 34.0 °F 28.8 °F 28.9 °F 82% 29.88 in 4.0 mi NE 5.8 mph - N/A   Haze
5:53 PM 33.1 °F 28.7 °F 28.9 °F 85% 29.89 in 5.0 mi NE 4.6 mph - N/A   Overcast
6:53 PM 33.1 °F 27.7 °F 28.9 °F 85% 29.90 in 5.0 mi NE 5.8 mph - N/A   Overcast
7:53 PM 34.0 °F 28.0 °F 28.9 °F 82% 29.90 in 5.0 mi NE 6.9 mph - N/A   Haze
8:53 PM 34.0 °F 28.8 °F 30.0 °F 85% 29.90 in 4.0 mi ENE 5.8 mph - N/A   Overcast
9:53 PM 34.0 °F 29.8 °F 30.9 °F 89% 29.90 in 4.0 mi East 4.6 mph - 0.00 in Rain Light Rain
10:53 PM 34.0 °F 29.8 °F 30.9 °F 89% 29.89 in 3.0 mi ENE 4.6 mph - 0.00 in   Overcast
11:33 PM 33.8 °F 30.8 °F 32.0 °F 93% 29.86 in 2.5 mi ENE 3.5 mph - 0.00 in   Overcast
11:53 PM 34.0 °F - 32.0 °F 92% 29.89 in 2.5 mi Calm Calm - 0.00 in   Overcast